Location: Oak Glen
(34.0495°N, 116.9470°E)
Time: 04:35:12
(UTC-07:00)

Vanguard 2 - Visible Passes

Search period start: 23 April 2018 00:00
Search period end: 03 May 2018 00:00
Orbit: 553 x 2939 km, 32.9° (Epoch: 23 April)

Date Brightness Start Highest point End Pass type
(mag) Time Alt. Az. Time Alt. Az. Time Alt. Az.
23 Apr 9.2 05:36:06 10° SW 05:47:22 39° SSE 05:49:03 37° SE visible
23 Apr 10.4 07:47:30 10° WSW 07:50:33 20° WSW 07:50:33 20° WSW visible
24 Apr 8.9 05:53:41 10° SW 06:05:33 49° SSE 06:06:58 46° SE visible
24 Apr 10.4 08:05:48 10° WSW 08:08:28 19° WSW 08:08:28 19° WSW visible
25 Apr 10.2 04:01:02 10° SSW 04:13:21 32° SSE 04:21:54 10° E visible
25 Apr 8.7 06:11:36 10° WSW 06:23:44 60° SSE 06:24:47 57° SE visible
25 Apr 10.5 08:24:09 10° W 08:26:17 17° W 08:26:17 17° W visible
26 Apr 10.0 04:18:04 10° SW 04:31:35 40° SSE 04:40:29 10° E visible
26 Apr 8.6 06:29:43 10° WSW 06:41:54 70° SSE 06:42:31 68° SE visible
26 Apr 10.7 08:42:32 10° W 08:44:00 15° W 08:44:00 15° W visible
27 Apr 9.7 04:35:32 10° SW 04:49:47 50° SSE 04:58:40 11° E visible
27 Apr 8.6 06:48:01 10° WSW 07:00:05 77° S 07:00:08 77° SSE visible
27 Apr 10.8 09:00:55 10° W 09:01:36 12° W 09:01:36 12° W visible
28 Apr 9.5 04:53:19 10° SW 05:07:59 59° SSE 05:16:11 14° E visible
28 Apr 8.7 07:06:26 10° W 07:17:38 77° SW 07:17:38 77° SW visible
29 Apr 9.4 05:11:22 10° WSW 05:26:12 69° SSE 05:33:35 18° E visible
29 Apr 8.8 07:24:54 10° W 07:35:02 67° WSW 07:35:02 67° WSW visible
30 Apr 9.3 05:29:37 10° WSW 05:44:25 76° S 05:50:54 23° E visible
30 Apr 9.1 07:43:21 10° W 07:52:21 56° W 07:52:21 56° W visible
01 May 9.2 05:48:01 10° WSW 06:02:40 82° S 06:08:08 30° E visible
01 May 9.4 08:01:50 10° W 08:09:34 45° W 08:09:34 45° W visible
02 May 9.1 06:06:30 10° W 06:20:55 85° S 06:25:16 38° E visible
02 May 9.8 08:20:17 10° W 08:26:43 36° W 08:26:43 36° W visible
